Back to catalog

STARLINK-5227

AliveCommunicationsVLEO
NORAD 54181·PAYLOAD·🇺🇸 United States

Launched Oct 28, 2022 from Vandenberg Space Force Base

Loading…

Next Passes (next 24 hours)

TLE

FreshSource: CelesTrak SupGP

Epoch: Sep 14, 2026, 21:51 UTC

1 54181C 22141AA  26257.91090278 -.00000038  00000+0 -11263-5 0  2574
2 54181  53.1579 219.9087 0001378  95.0500 316.1613 15.34396779    11

Track STARLINK-5227 in real time with AllMySat

Download on the App Store